JBU73 KJFK-EGPH

Flight info

Callsign JBU73
Flight time N/A
Altitude 31000
Route GREKI DCT JUDDS DCT MARTN DCT TOPPS N735B LOMSI/M079F330 DCT 55N050W 57N040W 58N030W 58N020W DCT SUNOT/N0459F330 DCT KESIX DCT MIMKU DCT DONIB DCT MAC/N0416F250 N562 TRN DCT TLA
Aircraft A21N/M-SDE2E3FGHIRWXY/LB1

Departure

Time N/A
Airport John F. Kennedy International Airport (KJFK)

Arrival

Time 2026-05-08 07:08
Airport Edinburgh Airport (EGPH)
Time Latitude Longitude Altitude Speed Heading
2026-05-08 02:33 51.51518 -59.45708 30548 ft 539 kts 48°
2026-05-08 02:33 51.56537 -59.37674 30532 ft 538 kts 48°
2026-05-08 02:34 51.61827 -59.29185 30530 ft 537 kts 49°
2026-05-08 02:34 51.67088 -59.20701 30531 ft 537 kts 49°
2026-05-08 02:35 51.72349 -59.12190 30528 ft 536 kts 49°
2026-05-08 02:35 51.77622 -59.03645 30529 ft 536 kts 49°
2026-05-08 02:36 51.82825 -58.95168 30532 ft 535 kts 49°
2026-05-08 02:36 51.88023 -58.86667 30531 ft 533 kts 49°
2026-05-08 02:37 51.93208 -58.78172 30544 ft 530 kts 49°
2026-05-08 02:37 51.98368 -58.69679 30542 ft 530 kts 49°
2026-05-08 02:38 52.03492 -58.61214 30545 ft 528 kts 49°
2026-05-08 02:38 52.08634 -58.52696 30536 ft 527 kts 49°
2026-05-08 02:39 52.13743 -58.44202 30527 ft 527 kts 49°
2026-05-08 02:39 52.18865 -58.35650 30534 ft 527 kts 49°
2026-05-08 02:40 52.23965 -58.27116 30527 ft 527 kts 50°
2026-05-08 02:40 52.29035 -58.18599 30530 ft 526 kts 51°
2026-05-08 02:41 52.34121 -58.10023 30527 ft 525 kts 51°
2026-05-08 02:41 52.39159 -58.01501 30528 ft 523 kts 51°
2026-05-08 02:42 52.44207 -57.92930 30532 ft 522 kts 51°
2026-05-08 02:42 52.49227 -57.84373 30543 ft 523 kts 52°
2026-05-08 02:43 52.54224 -57.75824 30524 ft 522 kts 52°
2026-05-08 02:43 52.59221 -57.67257 30534 ft 521 kts 52°
2026-05-08 02:44 52.64209 -57.58666 30547 ft 519 kts 52°
2026-05-08 02:44 52.69177 -57.50079 30538 ft 519 kts 53°
2026-05-08 02:45 52.74112 -57.41513 30539 ft 519 kts 53°
2026-05-08 02:45 52.79084 -57.32860 30549 ft 518 kts 54°
2026-05-08 02:46 52.84008 -57.24263 30527 ft 517 kts 54°
2026-05-08 02:46 52.88934 -57.15632 30534 ft 515 kts 54°
2026-05-08 02:47 52.93808 -57.07052 30543 ft 512 kts 54°
2026-05-08 02:47 52.98674 -56.98447 30545 ft 514 kts 55°
2026-05-08 02:48 53.03531 -56.89843 30528 ft 514 kts 55°
2026-05-08 02:48 53.08236 -56.80981 30532 ft 506 kts 60°
2026-05-08 02:49 53.12197 -56.71430 30542 ft 500 kts 68°
2026-05-08 02:49 53.15516 -56.61355 30547 ft 493 kts 71°
2026-05-08 02:50 53.18556 -56.51700 30559 ft 495 kts 71°
2026-05-08 02:50 53.21638 -56.41943 30563 ft 494 kts 71°
2026-05-08 02:51 53.24725 -56.32180 30564 ft 494 kts 72°
2026-05-08 02:51 53.27737 -56.22636 30579 ft 494 kts 71°
2026-05-08 02:52 53.30807 -56.12862 30581 ft 495 kts 71°
2026-05-08 02:52 53.33910 -56.02942 30574 ft 495 kts 72°
2026-05-08 02:53 53.37015 -55.92985 30600 ft 496 kts 72°
2026-05-08 02:53 53.40082 -55.83107 30602 ft 496 kts 71°
2026-05-08 02:54 53.43191 -55.73046 30604 ft 499 kts 71°
2026-05-08 02:54 53.46141 -55.63475 30611 ft 499 kts 71°
2026-05-08 02:55 53.50648 -55.48759 30613 ft 502 kts 70°
2026-05-08 02:56 53.53824 -55.38351 30632 ft 502 kts 70°
2026-05-08 02:56 53.56688 -55.28934 30629 ft 502 kts 71°
2026-05-08 02:57 53.59797 -55.18632 30646 ft 504 kts 71°
2026-05-08 02:57 53.62856 -55.08489 30654 ft 502 kts 71°
2026-05-08 02:58 53.65916 -54.98274 30663 ft 502 kts 71°
2026-05-08 02:58 53.68876 -54.88346 30661 ft 503 kts 71°
2026-05-08 02:59 53.71722 -54.78777 30673 ft 503 kts 71°
2026-05-08 02:59 53.74745 -54.68559 30683 ft 503 kts 70°
2026-05-08 03:00 53.77603 -54.58861 30688 ft 504 kts 70°
2026-05-08 03:00 53.80706 -54.48295 30694 ft 504 kts 70°
2026-05-08 03:01 53.83627 -54.38309 30706 ft 503 kts 70°
2026-05-08 03:01 53.86670 -54.27849 30707 ft 503 kts 70°
2026-05-08 03:02 53.89477 -54.18160 30714 ft 502 kts 71°
2026-05-08 03:02 53.92370 -54.08125 30720 ft 502 kts 70°
2026-05-08 03:03 53.95188 -53.98323 30725 ft 500 kts 70°
2026-05-08 03:03 53.98099 -53.88148 30740 ft 501 kts 70°
2026-05-08 03:04 54.00849 -53.78505 30755 ft 500 kts 70°
2026-05-08 03:04 54.03873 -53.67839 30763 ft 500 kts 70°
2026-05-08 03:05 54.06700 -53.57828 30764 ft 500 kts 70°
2026-05-08 03:05 54.09520 -53.47798 30770 ft 500 kts 70°
2026-05-08 03:06 54.12161 -53.38364 30772 ft 500 kts 70°
2026-05-08 03:06 54.13728 -53.32745 30782 ft 500 kts 71°
2026-05-08 03:07 54.16665 -53.22190 30780 ft 498 kts 71°
2026-05-08 03:07 54.19491 -53.11981 30789 ft 498 kts 71°
2026-05-08 03:08 54.22161 -53.02286 30825 ft 500 kts 71°
2026-05-08 03:08 54.23497 -52.97430 31045 ft 499 kts 71°
2026-05-08 03:08 54.24978 -52.92031 31393 ft 496 kts 71°
2026-05-08 03:08 54.26453 -52.86642 31622 ft 496 kts 70°
2026-05-08 03:09 54.27587 -52.82482 31736 ft 497 kts 70°
2026-05-08 03:09 54.29060 -52.77072 31907 ft 498 kts 70°
2026-05-08 03:09 54.30399 -52.72154 32109 ft 498 kts 70°
2026-05-08 03:09 54.31832 -52.66874 32364 ft 497 kts 70°
2026-05-08 03:10 54.33226 -52.61714 32566 ft 497 kts 70°
2026-05-08 03:10 54.34679 -52.56326 32740 ft 498 kts 70°
2026-05-08 03:10 54.36077 -52.51133 32811 ft 499 kts 70°
2026-05-08 03:11 54.38893 -52.40649 32817 ft 498 kts 70°
2026-05-08 03:11 54.40477 -52.34730 32818 ft 498 kts 71°
2026-05-08 03:12 54.41820 -52.29702 32819 ft 498 kts 71°
2026-05-08 03:12 54.44849 -52.18289 32834 ft 499 kts 71°
2026-05-08 03:13 54.47280 -52.09112 32828 ft 499 kts 71°
2026-05-08 03:13 54.50109 -51.98371 32836 ft 499 kts 70°
2026-05-08 03:14 54.52977 -51.87434 32840 ft 500 kts 70°
2026-05-08 03:14 54.55528 -51.77659 32847 ft 500 kts 70°
2026-05-08 03:15 54.58285 -51.67048 32848 ft 500 kts 70°
2026-05-08 03:15 54.61050 -51.56361 32858 ft 500 kts 70°
2026-05-08 03:16 54.63732 -51.45939 32859 ft 499 kts 70°
2026-05-08 03:16 54.66483 -51.35200 32867 ft 499 kts 69°
2026-05-08 03:17 54.67589 -51.30875 32858 ft 499 kts 70°
2026-05-08 03:17 54.70316 -51.20151 32861 ft 500 kts 70°
2026-05-08 03:18 54.72779 -51.10435 32866 ft 499 kts 70°
2026-05-08 03:18 54.75355 -51.00212 32873 ft 500 kts 70°
2026-05-08 03:19 54.78141 -50.89115 32874 ft 499 kts 70°
2026-05-08 03:19 54.80693 -50.78900 32888 ft 499 kts 70°
2026-05-08 03:20 54.83299 -50.68412 32880 ft 500 kts 70°
2026-05-08 03:20 54.85912 -50.57844 32903 ft 500 kts 69°
2026-05-08 03:21 54.88511 -50.47294 32903 ft 500 kts 69°
2026-05-08 03:21 54.91021 -50.37045 32923 ft 502 kts 69°
2026-05-08 03:22 54.92375 -50.31505 32922 ft 501 kts 70°
2026-05-08 03:22 54.95587 -50.18285 32940 ft 502 kts 70°
2026-05-08 03:23 54.97780 -50.09207 32939 ft 501 kts 70°
2026-05-08 03:23 55.00370 -49.98465 32945 ft 501 kts 69°
2026-05-08 03:24 55.03062 -49.87737 32955 ft 502 kts 68°
2026-05-08 03:24 55.05760 -49.77050 32961 ft 502 kts 68°
2026-05-08 03:25 55.08390 -49.66543 32962 ft 502 kts 68°
2026-05-08 03:25 55.11102 -49.55638 32963 ft 501 kts 68°
2026-05-08 03:26 55.13705 -49.45116 32972 ft 502 kts 68°
2026-05-08 03:26 55.16200 -49.34969 32970 ft 502 kts 68°
2026-05-08 03:27 55.18119 -49.27142 32974 ft 501 kts 68°
2026-05-08 03:27 55.20679 -49.16650 32984 ft 501 kts 68°
2026-05-08 03:28 55.22987 -49.07142 32993 ft 501 kts 68°
2026-05-08 03:28 55.25615 -48.96268 32988 ft 500 kts 68°
2026-05-08 03:29 55.28166 -48.85663 32995 ft 500 kts 68°
2026-05-08 03:29 55.30763 -48.74816 33003 ft 500 kts 68°
2026-05-08 03:30 55.34602 -48.58669 33004 ft 499 kts 67°
2026-05-08 03:31 55.39681 -48.37135 33010 ft 499 kts 67°
2026-05-08 03:32 55.42186 -48.26427 33015 ft 499 kts 68°
2026-05-08 03:32 55.44461 -48.16647 33022 ft 499 kts 68°
2026-05-08 03:33 55.46781 -48.06649 33021 ft 499 kts 68°
2026-05-08 03:33 55.49159 -47.96331 33024 ft 498 kts 68°
2026-05-08 03:34 55.51589 -47.85744 33027 ft 498 kts 67°
2026-05-08 03:34 55.54121 -47.74660 33033 ft 498 kts 67°
2026-05-08 03:35 55.56547 -47.63991 33037 ft 498 kts 67°
2026-05-08 03:35 55.59043 -47.52949 33041 ft 498 kts 67°
2026-05-08 03:36 55.61478 -47.42115 33045 ft 497 kts 66°
2026-05-08 03:36 55.63164 -47.34580 33049 ft 496 kts 67°
2026-05-08 03:37 55.65424 -47.24456 33060 ft 496 kts 67°
2026-05-08 03:37 55.67672 -47.14326 33061 ft 496 kts 67°
2026-05-08 03:38 55.69946 -47.04028 33062 ft 495 kts 67°
2026-05-08 03:38 55.72313 -46.93243 33060 ft 495 kts 66°
2026-05-08 03:39 55.74641 -46.82595 33060 ft 494 kts 66°
2026-05-08 03:39 55.76928 -46.72070 33059 ft 493 kts 66°
2026-05-08 03:40 55.79164 -46.61749 33071 ft 492 kts 66°
2026-05-08 03:40 55.81594 -46.50446 33077 ft 490 kts 66°
2026-05-08 03:41 55.83867 -46.39827 33079 ft 490 kts 66°
2026-05-08 03:41 55.85103 -46.34021 33080 ft 489 kts 67°
2026-05-08 03:42 55.87816 -46.21252 33074 ft 487 kts 67°
2026-05-08 03:42 55.90103 -46.10409 33076 ft 487 kts 66°
2026-05-08 03:43 55.92364 -45.99639 33079 ft 486 kts 67°
2026-05-08 03:43 55.94374 -45.90013 33086 ft 484 kts 66°
2026-05-08 03:44 55.96589 -45.79356 33092 ft 484 kts 67°
2026-05-08 03:44 55.98846 -45.68451 33095 ft 483 kts 67°
2026-05-08 03:45 56.00937 -45.58276 33100 ft 483 kts 67°
2026-05-08 03:45 56.03236 -45.47033 33100 ft 482 kts 67°
2026-05-08 03:46 56.05431 -45.36234 33107 ft 480 kts 68°
2026-05-08 03:46 56.06793 -45.29508 33107 ft 479 kts 69°
2026-05-08 03:47 56.09224 -45.17443 33115 ft 478 kts 69°
2026-05-08 03:47 56.11424 -45.06450 33116 ft 478 kts 69°
2026-05-08 03:48 56.13472 -44.96163 33119 ft 478 kts 69°
2026-05-08 03:48 56.15608 -44.85390 33113 ft 478 kts 69°
2026-05-08 03:49 56.17711 -44.74720 33115 ft 478 kts 69°
2026-05-08 03:49 56.19625 -44.64940 33114 ft 479 kts 69°
2026-05-08 03:50 56.21691 -44.54348 33122 ft 480 kts 69°
2026-05-08 03:50 56.23828 -44.43319 33126 ft 480 kts 69°
2026-05-08 03:51 56.25447 -44.34931 33133 ft 480 kts 70°
2026-05-08 03:51 56.26534 -44.29274 33137 ft 481 kts 70°
2026-05-08 03:52 56.28639 -44.18269 33146 ft 482 kts 69°
2026-05-08 03:52 56.30538 -44.08297 33149 ft 482 kts 69°
2026-05-08 03:53 56.32612 -43.97339 33149 ft 483 kts 69°
2026-05-08 03:53 56.34636 -43.86589 33154 ft 483 kts 69°
2026-05-08 03:54 56.36589 -43.76167 33160 ft 482 kts 69°
2026-05-08 03:54 56.38700 -43.64815 33162 ft 482 kts 69°
2026-05-08 03:55 56.40758 -43.53683 33169 ft 482 kts 69°
2026-05-08 03:55 56.42779 -43.42696 33166 ft 482 kts 69°
2026-05-08 03:56 56.44246 -43.34680 33164 ft 481 kts 70°
2026-05-08 03:56 56.46007 -43.25011 33171 ft 482 kts 70°
2026-05-08 03:57 56.47956 -43.14246 33177 ft 482 kts 70°
2026-05-08 03:57 56.49743 -43.04330 33176 ft 482 kts 70°
2026-05-08 03:58 56.51806 -42.92814 33184 ft 482 kts 70°
2026-05-08 03:58 56.53725 -42.82027 33186 ft 481 kts 70°
2026-05-08 03:59 56.55765 -42.70498 33190 ft 481 kts 70°
2026-05-08 03:59 56.57641 -42.59829 33191 ft 480 kts 70°
2026-05-08 04:00 56.59607 -42.48576 33201 ft 480 kts 70°
2026-05-08 04:00 56.61557 -42.37362 33202 ft 479 kts 70°
2026-05-08 04:01 56.62528 -42.31745 33206 ft 479 kts 70°
2026-05-08 04:01 56.64384 -42.20957 33212 ft 479 kts 70°
2026-05-08 04:02 56.66286 -42.09841 33214 ft 478 kts 70°
2026-05-08 04:02 56.67987 -41.99839 33221 ft 477 kts 70°
2026-05-08 04:03 56.69752 -41.89400 33225 ft 477 kts 70°
2026-05-08 04:03 56.72499 -41.73021 33234 ft 476 kts 70°
2026-05-08 04:04 56.74301 -41.62210 33236 ft 476 kts 70°
2026-05-08 04:04 56.76074 -41.51500 33239 ft 476 kts 70°
2026-05-08 04:05 56.77904 -41.40367 33246 ft 476 kts 70°
2026-05-08 04:05 56.79119 -41.32945 33248 ft 476 kts 70°
2026-05-08 04:06 56.81174 -41.20316 33252 ft 475 kts 70°
2026-05-08 04:06 56.82939 -41.09391 33256 ft 475 kts 70°
2026-05-08 04:07 56.84713 -40.98344 33265 ft 474 kts 70°
2026-05-08 04:07 56.86474 -40.87301 33274 ft 474 kts 70°
2026-05-08 04:08 56.88147 -40.76748 33273 ft 474 kts 70°
2026-05-08 04:08 56.89893 -40.65653 33279 ft 474 kts 70°
2026-05-08 04:09 56.91633 -40.54530 33281 ft 474 kts 70°
2026-05-08 04:09 56.93290 -40.43871 33285 ft 473 kts 70°
2026-05-08 04:10 56.94693 -40.34784 33289 ft 472 kts 70°
2026-05-08 04:10 56.96267 -40.24537 33291 ft 473 kts 70°
2026-05-08 04:11 56.97813 -40.14412 33298 ft 473 kts 70°
2026-05-08 04:11 56.99398 -40.03945 33306 ft 472 kts 70°
2026-05-08 04:12 57.01114 -39.92315 33307 ft 473 kts 70°
2026-05-08 04:12 57.02525 -39.82351 33310 ft 473 kts 70°
2026-05-08 04:13 57.04105 -39.71132 33313 ft 473 kts 71°
2026-05-08 04:13 57.05587 -39.60530 33316 ft 472 kts 70°
2026-05-08 04:14 57.07153 -39.49266 33323 ft 472 kts 70°
2026-05-08 04:14 57.08673 -39.38273 33331 ft 472 kts 70°
2026-05-08 04:15 57.09211 -39.34357 33327 ft 471 kts 71°
2026-05-08 04:15 57.10879 -39.22161 33335 ft 471 kts 71°
2026-05-08 04:16 57.12420 -39.10810 33338 ft 469 kts 71°
2026-05-08 04:16 57.13842 -39.00269 33332 ft 469 kts 71°
2026-05-08 04:17 57.15322 -38.89206 33341 ft 469 kts 71°
2026-05-08 04:17 57.16788 -38.78174 33330 ft 468 kts 71°
2026-05-08 04:18 57.18174 -38.67645 33337 ft 468 kts 71°
2026-05-08 04:18 57.19612 -38.56651 33340 ft 468 kts 70°
2026-05-08 04:19 57.21128 -38.44990 33340 ft 466 kts 70°
2026-05-08 04:19 57.22423 -38.34940 33340 ft 465 kts 71°
2026-05-08 04:20 57.23448 -38.26945 33351 ft 464 kts 71°
2026-05-08 04:20 57.24818 -38.16179 33353 ft 465 kts 71°
2026-05-08 04:21 57.26219 -38.05116 33340 ft 464 kts 71°
2026-05-08 04:21 57.27594 -37.94111 33337 ft 465 kts 71°
2026-05-08 04:22 57.28874 -37.83825 33343 ft 466 kts 71°
2026-05-08 04:22 57.30303 -37.72269 33350 ft 465 kts 71°
2026-05-08 04:23 57.31623 -37.61500 33367 ft 466 kts 71°
2026-05-08 04:23 57.33005 -37.50146 33400 ft 467 kts 71°
2026-05-08 04:24 57.33669 -37.44636 33638 ft 466 kts 71°
2026-05-08 04:24 57.34364 -37.38841 33982 ft 464 kts 71°
2026-05-08 04:24 57.34821 -37.35005 34173 ft 463 kts 70°
2026-05-08 04:24 57.34861 -37.34676 34189 ft 463 kts 71°
2026-05-08 04:25 57.35546 -37.28934 34419 ft 462 kts 71°
2026-05-08 04:25 57.36235 -37.23139 34617 ft 463 kts 71°
2026-05-08 04:25 57.36861 -37.17859 34791 ft 463 kts 71°
2026-05-08 04:25 57.37550 -37.12029 35014 ft 462 kts 71°
2026-05-08 04:26 57.38172 -37.06751 35227 ft 461 kts 71°
2026-05-08 04:26 57.38845 -37.01008 35376 ft 461 kts 71°
2026-05-08 04:26 57.40193 -36.89423 35380 ft 459 kts 71°
2026-05-08 04:27 57.41472 -36.78326 35379 ft 459 kts 71°
2026-05-08 04:27 57.42809 -36.66633 35379 ft 459 kts 72°
2026-05-08 04:28 57.43978 -36.56316 35383 ft 458 kts 72°
2026-05-08 04:28 57.45245 -36.45046 35386 ft 458 kts 72°
2026-05-08 04:29 57.46379 -36.34868 35382 ft 458 kts 72°
2026-05-08 04:29 57.47375 -36.25871 35391 ft 458 kts 73°
2026-05-08 04:30 57.48602 -36.14695 35388 ft 458 kts 73°
2026-05-08 04:30 57.49827 -36.03450 35395 ft 457 kts 73°
2026-05-08 04:31 57.51070 -35.91925 35389 ft 457 kts 73°
2026-05-08 04:31 57.52291 -35.80508 35386 ft 457 kts 73°
2026-05-08 04:32 57.53498 -35.69105 35383 ft 457 kts 73°
2026-05-08 04:32 57.54722 -35.57437 35386 ft 457 kts 73°
2026-05-08 04:33 57.55925 -35.45855 35388 ft 456 kts 73°
2026-05-08 04:33 57.57051 -35.34926 35394 ft 456 kts 74°
2026-05-08 04:34 57.58237 -35.23302 35399 ft 455 kts 74°
2026-05-08 04:34 57.59388 -35.11905 35398 ft 455 kts 74°
2026-05-08 04:35 57.60535 -35.00439 35402 ft 455 kts 74°
2026-05-08 04:35 57.61669 -34.89006 35407 ft 455 kts 75°
2026-05-08 04:36 57.62814 -34.77340 35408 ft 455 kts 75°
2026-05-08 04:36 57.63918 -34.65975 35408 ft 455 kts 74°
2026-05-08 04:37 57.65019 -34.54527 35408 ft 455 kts 75°
2026-05-08 04:37 57.66067 -34.43533 35408 ft 454 kts 75°
2026-05-08 04:38 57.66924 -34.34448 35408 ft 454 kts 75°
2026-05-08 04:38 57.68129 -34.21572 35409 ft 454 kts 75°
2026-05-08 04:39 57.69198 -34.10008 35411 ft 453 kts 75°
2026-05-08 04:39 57.70257 -33.98427 35412 ft 453 kts 75°
2026-05-08 04:40 57.71310 -33.86814 35410 ft 453 kts 75°
2026-05-08 04:40 57.72351 -33.75190 35409 ft 453 kts 75°
2026-05-08 04:41 57.73381 -33.63574 35410 ft 452 kts 75°
2026-05-08 04:41 57.74397 -33.51987 35408 ft 452 kts 75°
2026-05-08 04:42 57.75402 -33.40376 35399 ft 452 kts 75°
2026-05-08 04:42 57.76401 -33.28743 35401 ft 452 kts 76°
2026-05-08 04:43 57.77385 -33.17130 35402 ft 452 kts 76°
2026-05-08 04:43 57.78362 -33.05472 35403 ft 452 kts 76°
2026-05-08 04:44 57.79327 -32.93829 35406 ft 452 kts 76°
2026-05-08 04:44 57.80277 -32.82230 35408 ft 452 kts 76°
2026-05-08 04:45 57.81218 -32.70586 35409 ft 452 kts 76°
2026-05-08 04:45 57.82161 -32.58799 35409 ft 451 kts 75°
2026-05-08 04:46 57.83080 -32.47168 35409 ft 451 kts 75°
2026-05-08 04:46 57.83981 -32.35612 35410 ft 451 kts 75°
2026-05-08 04:47 57.84884 -32.23907 35412 ft 451 kts 76°
2026-05-08 04:47 57.85770 -32.12269 35413 ft 451 kts 76°
2026-05-08 04:48 57.86642 -32.00695 35411 ft 451 kts 76°
2026-05-08 04:48 57.87506 -31.89035 35400 ft 450 kts 76°
2026-05-08 04:49 57.88352 -31.77480 35393 ft 449 kts 75°
2026-05-08 04:49 57.89193 -31.65871 35395 ft 449 kts 75°
2026-05-08 04:50 57.90022 -31.54271 35396 ft 450 kts 75°
2026-05-08 04:50 57.90844 -31.42611 35397 ft 450 kts 75°
2026-05-08 04:51 57.91651 -31.30998 35395 ft 450 kts 76°
2026-05-08 04:51 57.92447 -31.19365 35399 ft 449 kts 76°
2026-05-08 04:52 57.93229 -31.07814 35403 ft 448 kts 75°
2026-05-08 04:52 57.94007 -30.96162 35406 ft 447 kts 75°
2026-05-08 04:53 57.94769 -30.84578 35406 ft 448 kts 75°
2026-05-08 04:53 57.95522 -30.72942 35404 ft 447 kts 75°
2026-05-08 04:54 57.96259 -30.61395 35400 ft 446 kts 75°
2026-05-08 04:54 57.96988 -30.49813 35399 ft 446 kts 75°
2026-05-08 04:55 57.97707 -30.38219 35399 ft 445 kts 74°
2026-05-08 04:55 57.98411 -30.26684 35404 ft 446 kts 75°
2026-05-08 04:56 57.99107 -30.15131 35407 ft 445 kts 75°
2026-05-08 04:56 57.99790 -30.03516 35407 ft 445 kts 75°
2026-05-08 04:57 58.00328 -29.91799 35401 ft 445 kts 77°
2026-05-08 04:57 58.00766 -29.80321 35394 ft 445 kts 77°
2026-05-08 04:58 58.01195 -29.68717 35383 ft 445 kts 76°
2026-05-08 04:58 58.01616 -29.57071 35379 ft 444 kts 76°
2026-05-08 04:59 58.02016 -29.45757 35375 ft 444 kts 76°
2026-05-08 04:59 58.02418 -29.34166 35373 ft 443 kts 77°
2026-05-08 05:00 58.02809 -29.22587 35369 ft 443 kts 77°
2026-05-08 05:00 58.03189 -29.10949 35375 ft 444 kts 76°
2026-05-08 05:01 58.03556 -28.99362 35378 ft 442 kts 76°
2026-05-08 05:01 58.03905 -28.88140 35373 ft 441 kts 76°
2026-05-08 05:02 58.04252 -28.76575 35378 ft 441 kts 76°
2026-05-08 05:02 58.04585 -28.65093 35373 ft 440 kts 76°
2026-05-08 05:03 58.04910 -28.53579 35367 ft 438 kts 76°
2026-05-08 05:03 58.05226 -28.42059 35367 ft 438 kts 76°
2026-05-08 05:04 58.05532 -28.30536 35355 ft 439 kts 76°
2026-05-08 05:04 58.05820 -28.19155 35350 ft 439 kts 76°
2026-05-08 05:05 58.06105 -28.07571 35348 ft 438 kts 76°
2026-05-08 05:05 58.06375 -27.96154 35332 ft 437 kts 76°
2026-05-08 05:06 58.06637 -27.84718 35329 ft 437 kts 76°
2026-05-08 05:06 58.06888 -27.73206 35336 ft 438 kts 76°
2026-05-08 05:07 58.07128 -27.61802 35331 ft 438 kts 76°
2026-05-08 05:07 58.07358 -27.50342 35343 ft 436 kts 76°
2026-05-08 05:08 58.07576 -27.38937 35331 ft 436 kts 76°
2026-05-08 05:08 58.07785 -27.27547 35344 ft 436 kts 77°
2026-05-08 05:09 58.07885 -27.21876 35509 ft 438 kts 77°
2026-05-08 05:09 58.07983 -27.16205 35425 ft 437 kts 77°
2026-05-08 05:09 58.08168 -27.04827 35364 ft 436 kts 77°
2026-05-08 05:10 58.08431 -26.87827 35328 ft 435 kts 77°
2026-05-08 05:11 58.08594 -26.76455 35326 ft 434 kts 77°
2026-05-08 05:11 58.08749 -26.65008 35317 ft 435 kts 77°
2026-05-08 05:12 58.08892 -26.53638 35295 ft 436 kts 77°
2026-05-08 05:12 58.09024 -26.42216 35292 ft 436 kts 77°
2026-05-08 05:13 58.09146 -26.30729 35297 ft 437 kts 78°
2026-05-08 05:13 58.09261 -26.19222 35284 ft 438 kts 79°
2026-05-08 05:14 58.09361 -26.07766 35280 ft 439 kts 78°
2026-05-08 05:14 58.09454 -25.96170 35298 ft 439 kts 79°
2026-05-08 05:15 58.09534 -25.84765 35286 ft 438 kts 79°
2026-05-08 05:15 58.09607 -25.73296 35295 ft 437 kts 79°
2026-05-08 05:16 58.09666 -25.61832 35309 ft 436 kts 79°
2026-05-08 05:16 58.09718 -25.50358 35291 ft 439 kts 79°
2026-05-08 05:17 58.09759 -25.38840 35287 ft 438 kts 80°
2026-05-08 05:17 58.09790 -25.27250 35302 ft 440 kts 81°
2026-05-08 05:18 58.09807 -25.15790 35290 ft 439 kts 81°
2026-05-08 05:18 58.09817 -25.04221 35292 ft 439 kts 81°
2026-05-08 05:19 58.09816 -24.92582 35278 ft 441 kts 81°
2026-05-08 05:19 58.09805 -24.81060 35287 ft 441 kts 82°
2026-05-08 05:20 58.09782 -24.69741 35286 ft 442 kts 82°
2026-05-08 05:20 58.09749 -24.58151 35272 ft 443 kts 82°
2026-05-08 05:21 58.09705 -24.46552 35269 ft 442 kts 82°
2026-05-08 05:21 58.09654 -24.34974 35261 ft 444 kts 83°
2026-05-08 05:22 58.09589 -24.23200 35262 ft 446 kts 83°
2026-05-08 05:22 58.09513 -24.11680 35255 ft 446 kts 83°
2026-05-08 05:23 58.09428 -24.00219 35253 ft 446 kts 83°
2026-05-08 05:23 58.09332 -23.88677 35248 ft 446 kts 84°
2026-05-08 05:24 58.09223 -23.77030 35241 ft 445 kts 84°
2026-05-08 05:24 58.09109 -23.65571 35248 ft 446 kts 84°
2026-05-08 05:25 58.08983 -23.54075 35239 ft 446 kts 84°
2026-05-08 05:25 58.08843 -23.42393 35239 ft 447 kts 84°
2026-05-08 05:26 58.08693 -23.30655 35238 ft 448 kts 85°
2026-05-08 05:26 58.08534 -23.18963 35244 ft 449 kts 85°
2026-05-08 05:27 58.08362 -23.07278 35246 ft 449 kts 85°
2026-05-08 05:27 58.08181 -22.95565 35239 ft 449 kts 85°
2026-05-08 05:28 58.07987 -22.83790 35241 ft 450 kts 85°
2026-05-08 05:28 58.07781 -22.72001 35242 ft 450 kts 85°
2026-05-08 05:29 58.07565 -22.60223 35241 ft 451 kts 85°
2026-05-08 05:29 58.07339 -22.48463 35243 ft 451 kts 86°
2026-05-08 05:30 58.07101 -22.36646 35249 ft 452 kts 86°
2026-05-08 05:30 58.06850 -22.24804 35243 ft 452 kts 87°
2026-05-08 05:31 58.06591 -22.13040 35236 ft 452 kts 87°
2026-05-08 05:31 58.06318 -22.01171 35227 ft 452 kts 87°
2026-05-08 05:32 58.06037 -21.89403 35219 ft 453 kts 87°
2026-05-08 05:32 58.05743 -21.77555 35216 ft 453 kts 87°
2026-05-08 05:33 58.05437 -21.65646 35215 ft 454 kts 88°
2026-05-08 05:33 58.05120 -21.53803 35212 ft 453 kts 88°
2026-05-08 05:34 58.04793 -21.41962 35206 ft 453 kts 88°
2026-05-08 05:34 58.04457 -21.30173 35204 ft 454 kts 89°
2026-05-08 05:35 58.04105 -21.18266 35205 ft 455 kts 89°
2026-05-08 05:35 58.03743 -21.06407 35203 ft 455 kts 89°
2026-05-08 05:36 58.03371 -20.94555 35200 ft 455 kts 89°
2026-05-08 05:36 58.02987 -20.82651 35202 ft 456 kts 89°
2026-05-08 05:37 58.02593 -20.70785 35200 ft 455 kts 89°
2026-05-08 05:37 58.02188 -20.58955 35202 ft 455 kts 89°
2026-05-08 05:38 58.01771 -20.47088 35201 ft 455 kts 89°
2026-05-08 05:38 58.01341 -20.35205 35201 ft 455 kts 89°
2026-05-08 05:39 58.00900 -20.23342 35200 ft 457 kts 90°
2026-05-08 05:39 58.00435 -20.11378 35199 ft 458 kts 91°
2026-05-08 05:40 57.99519 -19.99580 35200 ft 460 kts 98°
2026-05-08 05:40 57.97883 -19.87914 35201 ft 463 kts 105°
2026-05-08 05:41 57.95851 -19.76471 35198 ft 463 kts 105°
2026-05-08 05:41 57.93793 -19.64972 35197 ft 464 kts 105°
2026-05-08 05:42 57.91739 -19.53531 35195 ft 464 kts 105°
2026-05-08 05:42 57.89673 -19.42074 35192 ft 464 kts 105°
2026-05-08 05:43 57.87604 -19.30660 35190 ft 464 kts 106°
2026-05-08 05:43 57.85517 -19.19212 35187 ft 464 kts 106°
2026-05-08 05:44 57.83432 -19.07855 35186 ft 464 kts 107°
2026-05-08 05:44 57.81321 -18.96421 35182 ft 465 kts 107°
2026-05-08 05:45 57.79198 -18.84991 35179 ft 465 kts 107°
2026-05-08 05:45 57.77076 -18.73632 35178 ft 465 kts 107°
2026-05-08 05:46 57.74942 -18.62277 35178 ft 464 kts 107°
2026-05-08 05:46 57.72790 -18.50900 35179 ft 464 kts 107°
2026-05-08 05:47 57.70636 -18.39572 35177 ft 464 kts 107°
2026-05-08 05:47 57.68472 -18.28254 35177 ft 465 kts 108°
2026-05-08 05:48 57.66292 -18.16922 35176 ft 466 kts 108°
2026-05-08 05:48 57.64094 -18.05571 35177 ft 466 kts 108°
2026-05-08 05:49 57.61887 -17.94242 35175 ft 465 kts 108°
2026-05-08 05:49 57.59681 -17.82974 35174 ft 466 kts 108°
2026-05-08 05:50 57.57451 -17.71648 35172 ft 466 kts 108°
2026-05-08 05:50 57.55215 -17.60356 35168 ft 466 kts 108°
2026-05-08 05:51 57.52969 -17.49084 35168 ft 467 kts 109°
2026-05-08 05:51 57.50696 -17.37736 35164 ft 467 kts 109°
2026-05-08 05:52 57.48429 -17.26487 35159 ft 467 kts 110°
2026-05-08 05:52 57.46137 -17.15183 35156 ft 467 kts 110°
2026-05-08 05:53 57.43872 -17.04070 35154 ft 467 kts 110°
2026-05-08 05:53 57.41572 -16.92845 35151 ft 467 kts 110°
2026-05-08 05:54 57.39263 -16.81637 35149 ft 466 kts 110°
2026-05-08 05:54 57.36947 -16.70459 35145 ft 467 kts 110°
2026-05-08 05:55 57.34625 -16.59315 35141 ft 468 kts 110°
2026-05-08 05:55 57.32274 -16.48099 35140 ft 468 kts 110°
2026-05-08 05:56 57.29890 -16.36784 35138 ft 468 kts 110°
2026-05-08 05:56 57.27528 -16.25630 35134 ft 468 kts 111°
2026-05-08 05:57 57.25156 -16.14496 35132 ft 467 kts 111°
2026-05-08 05:57 57.22774 -16.03378 35127 ft 467 kts 111°
2026-05-08 05:58 57.20369 -15.92214 35122 ft 467 kts 111°
2026-05-08 05:58 57.17947 -15.81028 35118 ft 467 kts 112°
2026-05-08 05:59 57.15530 -15.69923 35114 ft 468 kts 112°
2026-05-08 05:59 57.13110 -15.58860 35112 ft 469 kts 112°
2026-05-08 06:00 57.10680 -15.47816 35110 ft 468 kts 112°
2026-05-08 06:00 57.08231 -15.36753 35111 ft 468 kts 112°
2026-05-08 06:01 57.05792 -15.25787 35110 ft 468 kts 113°
2026-05-08 06:01 57.03316 -15.14716 35104 ft 467 kts 112°
2026-05-08 06:02 57.01198 -15.03546 35103 ft 467 kts 107°
2026-05-08 06:02 56.99753 -14.91921 35097 ft 469 kts 100°
2026-05-08 06:03 56.98998 -14.80005 35098 ft 470 kts 95°
2026-05-08 06:03 56.98448 -14.67956 35095 ft 471 kts 95°
2026-05-08 06:04 56.97887 -14.56115 35092 ft 471 kts 95°
2026-05-08 06:04 56.97302 -14.44245 35090 ft 472 kts 95°
2026-05-08 06:05 56.96705 -14.32436 35087 ft 472 kts 96°
2026-05-08 06:05 56.96092 -14.20536 35082 ft 473 kts 96°
2026-05-08 06:06 56.95367 -14.08562 35083 ft 472 kts 100°
2026-05-08 06:06 56.94106 -13.97594 35083 ft 472 kts 107°
2026-05-08 06:07 56.92040 -13.86246 35082 ft 471 kts 113°
2026-05-08 06:07 56.89611 -13.75183 35082 ft 470 kts 114°
2026-05-08 06:08 56.87152 -13.64032 35075 ft 470 kts 113°
2026-05-08 06:08 56.84701 -13.52919 35071 ft 470 kts 114°
2026-05-08 06:09 56.82259 -13.41889 35067 ft 470 kts 114°
2026-05-08 06:09 56.79811 -13.30889 35066 ft 470 kts 115°
2026-05-08 06:10 56.77347 -13.19871 35065 ft 470 kts 115°
2026-05-08 06:10 56.74873 -13.08873 35058 ft 471 kts 115°
2026-05-08 06:11 56.72374 -12.97816 35057 ft 472 kts 115°
2026-05-08 06:11 56.69876 -12.86816 35055 ft 472 kts 115°
2026-05-08 06:12 56.67371 -12.75846 35047 ft 472 kts 115°
2026-05-08 06:12 56.64853 -12.64876 35045 ft 472 kts 115°
2026-05-08 06:13 56.62348 -12.54021 35042 ft 472 kts 115°
2026-05-08 06:13 56.59827 -12.43153 35039 ft 471 kts 115°
2026-05-08 06:14 56.57258 -12.32128 35039 ft 472 kts 116°
2026-05-08 06:14 56.54716 -12.21280 35039 ft 472 kts 116°
2026-05-08 06:15 56.52140 -12.10342 35040 ft 472 kts 116°
2026-05-08 06:15 56.49586 -11.99551 35032 ft 473 kts 116°
2026-05-08 06:16 56.46983 -11.88606 35031 ft 473 kts 116°
2026-05-08 06:16 56.44353 -11.77604 35035 ft 473 kts 116°
2026-05-08 06:17 56.40427 -11.61286 35027 ft 473 kts 117°
2026-05-08 06:17 56.37794 -11.50409 35030 ft 473 kts 117°
2026-05-08 06:18 56.35141 -11.39505 35030 ft 473 kts 117°
2026-05-08 06:18 56.32483 -11.28637 35031 ft 473 kts 118°
2026-05-08 06:19 56.29829 -11.17838 35031 ft 473 kts 118°
2026-05-08 06:19 56.27179 -11.07109 35023 ft 473 kts 118°
2026-05-08 06:20 56.24487 -10.96262 35029 ft 474 kts 118°
2026-05-08 06:20 56.21767 -10.85356 35033 ft 474 kts 118°
2026-05-08 06:21 56.19084 -10.74647 35036 ft 474 kts 118°
2026-05-08 06:21 56.16372 -10.63882 35034 ft 474 kts 118°
2026-05-08 06:22 56.13634 -10.53060 35030 ft 474 kts 118°
2026-05-08 06:22 56.10924 -10.42406 35025 ft 475 kts 118°
2026-05-08 06:23 56.08216 -10.31809 35032 ft 474 kts 119°
2026-05-08 06:23 56.05454 -10.21059 35027 ft 475 kts 119°
2026-05-08 06:24 56.02753 -10.10596 35027 ft 475 kts 118°
2026-05-08 06:24 56.00341 -9.99670 35026 ft 478 kts 112°
2026-05-08 06:25 55.98643 -9.88389 35028 ft 481 kts 105°
2026-05-08 06:25 55.97330 -9.76664 35030 ft 481 kts 104°
2026-05-08 06:26 55.96027 -9.65057 35028 ft 481 kts 104°
2026-05-08 06:26 55.94690 -9.53360 35026 ft 483 kts 104°
2026-05-08 06:27 55.93340 -9.41721 35038 ft 483 kts 105°
2026-05-08 06:27 55.91966 -9.29989 35022 ft 483 kts 106°
2026-05-08 06:28 55.90587 -9.18329 35030 ft 483 kts 106°
2026-05-08 06:28 55.89198 -9.06672 35036 ft 483 kts 106°
2026-05-08 06:29 55.87790 -8.94961 35043 ft 484 kts 106°
2026-05-08 06:29 55.86379 -8.83337 35037 ft 484 kts 106°
2026-05-08 06:30 55.84954 -8.71695 35027 ft 484 kts 106°
2026-05-08 06:30 55.83519 -8.60054 35049 ft 484 kts 106°
2026-05-08 06:31 55.82065 -8.48367 35047 ft 485 kts 106°
2026-05-08 06:31 55.80597 -8.36669 35044 ft 485 kts 106°
2026-05-08 06:32 55.79126 -8.25027 35040 ft 485 kts 107°
2026-05-08 06:32 55.77616 -8.13207 35044 ft 485 kts 107°
2026-05-08 06:33 55.76119 -8.01566 35070 ft 485 kts 107°
2026-05-08 06:33 55.74600 -7.89853 35044 ft 486 kts 107°
2026-05-08 06:34 55.73110 -7.78466 35042 ft 486 kts 107°
2026-05-08 06:34 55.71578 -7.66845 35036 ft 487 kts 107°
2026-05-08 06:35 55.70018 -7.55090 35048 ft 488 kts 107°
2026-05-08 06:35 55.68459 -7.43443 35027 ft 488 kts 107°
2026-05-08 06:36 55.66888 -7.31799 35053 ft 488 kts 108°
2026-05-08 06:36 55.65299 -7.20116 35020 ft 488 kts 108°
2026-05-08 06:37 55.63712 -7.08545 35052 ft 488 kts 108°
2026-05-08 06:37 55.62069 -6.96665 35041 ft 488 kts 108°
2026-05-08 06:38 55.60334 -6.84199 35050 ft 489 kts 108°
2026-05-08 06:38 55.58647 -6.72175 35048 ft 488 kts 108°
2026-05-08 06:39 55.57000 -6.60553 35046 ft 489 kts 108°
2026-05-08 06:39 55.55334 -6.48866 35036 ft 489 kts 108°
2026-05-08 06:40 55.53670 -6.37287 35040 ft 489 kts 108°
2026-05-08 06:40 55.51997 -6.25718 35040 ft 488 kts 109°
2026-05-08 06:41 55.50302 -6.14093 35042 ft 488 kts 109°
2026-05-08 06:41 55.48603 -6.02526 35048 ft 488 kts 109°
2026-05-08 06:42 55.46893 -5.90967 34935 ft 490 kts 109°
2026-05-08 06:42 55.46030 -5.85165 34762 ft 489 kts 109°
2026-05-08 06:42 55.45166 -5.79376 34548 ft 486 kts 109°
2026-05-08 06:43 55.44310 -5.73661 34358 ft 484 kts 109°
2026-05-08 06:43 55.43460 -5.68004 34142 ft 480 kts 109°
2026-05-08 06:43 55.42626 -5.62362 33920 ft 479 kts 108°
2026-05-08 06:43 55.41859 -5.56626 33539 ft 478 kts 107°
2026-05-08 06:44 55.41130 -5.50972 32990 ft 477 kts 107°
2026-05-08 06:44 55.40396 -5.45286 32344 ft 478 kts 107°
2026-05-08 06:44 55.39653 -5.39594 31651 ft 480 kts 107°
2026-05-08 06:44 55.38891 -5.33841 30921 ft 481 kts 108°
2026-05-08 06:45 55.38132 -5.28142 30146 ft 481 kts 108°
2026-05-08 06:45 55.37367 -5.22455 29382 ft 481 kts 108°
2026-05-08 06:45 55.36588 -5.16683 28569 ft 482 kts 108°
2026-05-08 06:45 55.35817 -5.10998 27771 ft 481 kts 107°
2026-05-08 06:46 55.35039 -5.05280 26994 ft 480 kts 107°
2026-05-08 06:46 55.34273 -4.99654 26509 ft 471 kts 107°
2026-05-08 06:46 55.33522 -4.94144 26026 ft 463 kts 107°
2026-05-08 06:46 55.32778 -4.88723 25548 ft 456 kts 107°
2026-05-08 06:47 55.32089 -4.83325 25069 ft 454 kts 103°
2026-05-08 06:47 55.31844 -4.77824 24601 ft 455 kts 92°
2026-05-08 06:47 55.32130 -4.72265 24047 ft 456 kts 82°
2026-05-08 06:47 55.32795 -4.66908 23527 ft 452 kts 78°
2026-05-08 06:48 55.33537 -4.61588 23041 ft 447 kts 78°
2026-05-08 06:48 55.34278 -4.56326 22544 ft 442 kts 78°
2026-05-08 06:48 55.35004 -4.51106 22038 ft 438 kts 78°
2026-05-08 06:48 55.35714 -4.45911 21536 ft 434 kts 78°
2026-05-08 06:49 55.36396 -4.40849 21047 ft 429 kts 78°
2026-05-08 06:49 55.37056 -4.35905 20570 ft 426 kts 78°
2026-05-08 06:49 55.37688 -4.31133 20105 ft 422 kts 79°
2026-05-08 06:49 55.38308 -4.26436 19626 ft 419 kts 79°
2026-05-08 06:50 55.38928 -4.21710 19163 ft 416 kts 79°
2026-05-08 06:50 55.39516 -4.17215 18718 ft 413 kts 79°
2026-05-08 06:50 55.40146 -4.12393 18236 ft 410 kts 79°
2026-05-08 06:50 55.40786 -4.07481 17746 ft 407 kts 79°
2026-05-08 06:51 55.41409 -4.02676 17260 ft 404 kts 79°
2026-05-08 06:51 55.42037 -3.97817 16756 ft 402 kts 79°
2026-05-08 06:51 55.42646 -3.93081 16277 ft 399 kts 79°
2026-05-08 06:51 55.43251 -3.88360 15793 ft 396 kts 79°
2026-05-08 06:52 55.43856 -3.83637 15309 ft 393 kts 79°
2026-05-08 06:52 55.44450 -3.78972 14823 ft 391 kts 79°
2026-05-08 06:52 55.45038 -3.74353 14346 ft 388 kts 79°
2026-05-08 06:52 55.45629 -3.69679 13901 ft 383 kts 79°
2026-05-08 06:53 55.46199 -3.65178 13794 ft 368 kts 79°
2026-05-08 06:53 55.46741 -3.60876 13692 ft 354 kts 79°
2026-05-08 06:53 55.47257 -3.56764 13586 ft 340 kts 79°
2026-05-08 06:53 55.47758 -3.52761 13486 ft 327 kts 79°
2026-05-08 06:54 55.48217 -3.49069 13409 ft 314 kts 79°
2026-05-08 06:54 55.48684 -3.45307 13340 ft 300 kts 79°
2026-05-08 06:54 55.49120 -3.41784 13282 ft 287 kts 79°
2026-05-08 06:54 55.49540 -3.38392 13231 ft 282 kts 79°
2026-05-08 06:55 55.50201 -3.35210 13102 ft 285 kts 55°
2026-05-08 06:55 55.51615 -3.32931 12781 ft 284 kts 28°
2026-05-08 06:55 55.53335 -3.31517 12474 ft 281 kts 20°
2026-05-08 06:55 55.55160 -3.30222 12150 ft 279 kts 21°
2026-05-08 06:56 55.56932 -3.28894 11833 ft 278 kts 22°
2026-05-08 06:56 55.58691 -3.27476 11514 ft 277 kts 24°
2026-05-08 06:56 55.60418 -3.26013 11197 ft 276 kts 24°
2026-05-08 06:56 55.62125 -3.24529 10886 ft 274 kts 25°
2026-05-08 06:57 55.63833 -3.23026 10574 ft 272 kts 25°
2026-05-08 06:57 55.65511 -3.21541 10265 ft 271 kts 25°
2026-05-08 06:57 55.67197 -3.20048 9880 ft 272 kts 25°
2026-05-08 06:57 55.68880 -3.18556 9534 ft 271 kts 25°
2026-05-08 06:58 55.70578 -3.17081 9196 ft 269 kts 24°
2026-05-08 06:58 55.72248 -3.15672 8877 ft 267 kts 23°
2026-05-08 06:58 55.73911 -3.14274 8571 ft 264 kts 23°
2026-05-08 06:58 55.75574 -3.12872 8274 ft 263 kts 23°
2026-05-08 06:59 55.77169 -3.11524 7984 ft 262 kts 23°
2026-05-08 06:59 55.78769 -3.10167 7686 ft 261 kts 23°
2026-05-08 06:59 55.80341 -3.08833 7401 ft 260 kts 23°
2026-05-08 06:59 55.81983 -3.07439 7102 ft 259 kts 23°
2026-05-08 07:00 55.83513 -3.06137 6828 ft 258 kts 23°
2026-05-08 07:00 55.85161 -3.04896 6532 ft 256 kts 14°
2026-05-08 07:00 55.86876 -3.04150 6246 ft 253 kts
2026-05-08 07:00 55.88588 -3.03600 5955 ft 251 kts
2026-05-08 07:01 55.90315 -3.03076 5658 ft 250 kts
2026-05-08 07:01 55.92016 -3.02553 5366 ft 249 kts
2026-05-08 07:01 55.93718 -3.02025 5080 ft 248 kts
2026-05-08 07:01 55.95419 -3.01887 4782 ft 243 kts 352°
2026-05-08 07:02 55.97098 -3.02207 4491 ft 242 kts 349°
2026-05-08 07:02 55.98758 -3.02613 4202 ft 240 kts 348°
2026-05-08 07:02 56.00417 -3.03023 3908 ft 238 kts 348°
2026-05-08 07:02 56.01987 -3.03745 3558 ft 233 kts 325°
2026-05-08 07:03 56.02992 -3.05827 3245 ft 220 kts 287°
2026-05-08 07:03 56.03393 -3.08382 3186 ft 205 kts 283°
2026-05-08 07:03 56.03602 -3.10829 3081 ft 200 kts 259°
2026-05-08 07:03 56.03141 -3.13147 2990 ft 200 kts 243°
2026-05-08 07:04 56.02473 -3.15291 2827 ft 191 kts 240°
2026-05-08 07:04 56.01794 -3.17288 2556 ft 185 kts 239°
2026-05-08 07:04 56.01153 -3.19144 2306 ft 168 kts 239°
2026-05-08 07:04 56.00567 -3.20853 2044 ft 154 kts 239°
2026-05-08 07:05 56.00036 -3.22410 1821 ft 139 kts 239°
2026-05-08 07:05 55.99547 -3.23846 1624 ft 132 kts 239°
2026-05-08 07:05 55.99076 -3.25230 1467 ft 132 kts 239°
2026-05-08 07:05 55.98598 -3.26642 1288 ft 132 kts 239°
2026-05-08 07:06 55.98116 -3.28029 1099 ft 131 kts 239°
2026-05-08 07:06 55.97639 -3.29413 927 ft 131 kts 239°
2026-05-08 07:06 55.97178 -3.30801 762 ft 130 kts 240°
2026-05-08 07:06 55.96716 -3.32188 595 ft 130 kts 239°
2026-05-08 07:07 55.96243 -3.33560 419 ft 130 kts 239°
2026-05-08 07:07 55.95782 -3.34926 228 ft 129 kts 239°
2026-05-08 07:07 55.95324 -3.36296 107 ft 121 kts 239°
2026-05-08 07:07 55.94966 -3.37353 106 ft 76 kts 239°
2026-05-08 07:08 55.94778 -3.37895 107 ft 26 kts 239°
2026-05-08 07:08 55.94712 -3.38039 108 ft 12 kts 186°
2026-05-08 07:08 55.94631 -3.37985 108 ft 12 kts 149°
2026-05-08 07:08 55.94598 -3.37861 107 ft 12 kts 68°
2026-05-08 07:09 55.94648 -3.37712 107 ft 15 kts 58°
2026-05-08 07:09 55.94707 -3.37537 106 ft 18 kts 59°
2026-05-08 07:09 55.94775 -3.37337 106 ft 19 kts 59°
2026-05-08 07:09 55.94846 -3.37127 106 ft 19 kts 59°
2026-05-08 07:10 55.94912 -3.36931 106 ft 15 kts 60°
2026-05-08 07:10 55.94901 -3.36764 106 ft 13 kts 85°
2026-05-08 07:10 55.94938 -3.36619 106 ft 12 kts 59°
2026-05-08 07:10 55.94965 -3.36500 106 ft 8 kts 108°
2026-05-08 07:11 55.94940 -3.36450 106 ft 2 kts 147°
2026-05-08 07:11 55.94929 -3.36438 106 ft 0 kts 149°
2026-05-08 07:11 55.94925 -3.36434 106 ft 0 kts 149°
2026-05-08 07:11 55.94920 -3.36429 106 ft 0 kts 149°
2026-05-08 07:12 55.94920 -3.36428 106 ft 0 kts 149°